Location: Plainartige
(45.6866°N, 1.7993°E)
Time: 11:13:46
(UTC+00:00)

Gurwin Techsat 1B - Pass Details

Date: 02 July 2022
Orbit: 812 x 813 km, 98.8° (Epoch: 09 August)

Event Time Altitude Azimuth Distance (km) Brightness Sun altitude
Rises 01:37:19 0° 24° (NNE) 3,345 13.6 -17.6°
Reaches altitude 10° 01:39:59 10° 35° (NE) 2,409 12.3 -17.4°
Maximum altitude 01:44:35 29° 95° (E) 1,453 10.1 -17.0°
Enters shadow 01:49:03 10° 154° (SSE) 2,361 10.7 -16.7°
